This is the latest recevied weather packets stored in our database for station/object IW8PDD-3. If no packets are shown the sender has not sent any weather packets the latest 10 day(s).
| Time | Temp. | Humidity | Pressure | Rain* | Wind** | Luminosity | Snow |
|---|---|---|---|---|---|---|---|
| 1777350280 | 16.11° C | 60% | 1016.1 hPa | - | - | - | - |
| 1777349076 | 16.67° C | 60% | 1016.1 hPa | - | - | - | - |
| 1777347873 | 16.67° C | 61% | 1016.1 hPa | - | - | - | - |
| 1777346670 | 16.67° C | 61% | 1016.1 hPa | - | - | - | - |
| 1777345466 | 16.67° C | 60% | 1016.2 hPa | - | - | - | - |
| 1777343059 | 17.22° C | 59% | 1016.4 hPa | - | - | - | - |
| 1777341856 | 17.22° C | 59% | 1016.3 hPa | - | - | - | - |
| 1777340652 | 17.22° C | 57% | 1016.4 hPa | - | - | - | - |
| 1777338245 | 17.22° C | 52% | 1016.6 hPa | - | - | - | - |
| 1777337042 | 17.22° C | 51% | 1016.4 hPa | - | - | - | - |
| 1777335838 | 17.22° C | 50% | 1016.4 hPa | - | - | - | - |
| 1777334635 | 17.78° C | 49% | 1016.6 hPa | - | - | - | - |
| 1777333431 | 17.78° C | 50% | 1016.8 hPa | - | - | - | - |
| 1777332228 | 17.78° C | 50% | 1016.9 hPa | - | - | - | - |
| 1777331024 | 17.78° C | 51% | 1016.9 hPa | - | - | - | - |
| 1777329821 | 18.33° C | 53% | 1017.1 hPa | - | - | - | - |
| 1777328618 | 18.33° C | 52% | 1017.4 hPa | - | - | - | - |
| 1777327414 | 18.33° C | 52% | 1017.5 hPa | - | - | - | - |
| 1777326210 | 18.33° C | 53% | 1017.4 hPa | - | - | - | - |
| 1777325007 | 18.33° C | 55% | 1017.4 hPa | - | - | - | - |
| 1777323804 | 18.33° C | 55% | 1017.4 hPa | - | - | - | - |
| 1777322600 | 18.33° C | 55% | 1017.5 hPa | - | - | - | - |
| 1777321397 | 19.44° C | 52% | 1017.5 hPa | - | - | - | - |
| 1777320193 | 19.44° C | 54% | 1017.5 hPa | - | - | - | - |
| 1777318990 | 19.44° C | 55% | 1017.6 hPa | - | - | - | - |
* Rain since midnight (hover to see other rain measurements)
** Current wind speed in m/s (hover to see current wind gust speed)